Find Starlink 32800

NORAD ID: 62743 Int'l Des: 2025-014 Owner: SPXS Country: US Constellation: starlink operational
LEOCIRCULAR

实时位置

正在加载3D地球...

关于 Starlink 32800

正在加载描述...

即将过境

Passes for default location (London). Set your location on the main map for personalized predictions.

高度历史

Loading altitude history...

两行轨道根数

1 62743U 25014J 26122.31404110 .00015831 00000-0 58378-3 0 9993
2 62743 43.0012 218.8927 0001401 259.2474 100.8220 15.27567429 71379
Epoch: May 2, 2026 • Age: 11 hours

当前状态

高度 492.1 km
速度 7.62 km/s
星下点 -34.39°S, 34.62°E
发射日期 Jan 21, 2025
运行时间 1.2 years
类型 internet

技术详情

分类 Payload
质量 730.00 kg
干质量 700.00 kg
总质量 730.00 kg
长度 0.30 m
直径 4.10 m
跨度 29.00 m
形状 Box + pan
制造商 SPXS
平台类型 Starlink V2M
阶段状态 In Orbit
所有者/国家 SPXS/US

Most Searched